SCP
0 0 0 1 0 0 0 0 0 0 0 0 0 0 0 0 0 0 0 0 0 0 0 0 0 0 0 0 0 0 0 0 0 0 0 0 0 0 0 0 0 0 0
0 0 0 0 0 0 0 0 0 0 0 0 0 0 0 0 0 0 0 0 0 0 0 0 0 0 0 0 0 0 0 0 0 0 0 0 0 0 0 0 0 0 0
0 0 0 0 0 0 0 0 0 0 0 0 0 0 0 0 0 0 0 0 0 0 0 0 0 0 0 0 0 0 0 0 0 0 0 0 0 0 0 0 0 0 0
0 0 0 0 0 0 0 0 0 0 0 0 0 0 0 0 0 0 0 0 0 0 0 0 0 0 0 0 0 0 0 0 0 0 0 0 0 0 0 0 0 0 0
0 0 0 0 0 0 0 0 0 0 0 0 0 0 0 0 0 0 0 0 0 0 0 0 0 0 0 0 0 0 0 0 0 0 0 0 0 0 0 0 0 0 0
0 0 0 0 0 0 0 0 0 0 0 0 0 0 0 0 0 0 0 0 0 0 0 0 0 0 0 0 0 0 0 0 0 0 0 0 0 0 0 0 0 0 0
0 0 0 0 0 0 0 0 0 0 0 0 0 0 0 0 0 0 0 0 0 0 0 0 0 0 0 0 0 0 0 0 0 0 0 0 0 0 0 0 0 0 0
0 0 0 0 0 0 0 0 0 0 0 0 0 0 0 0 0 0 0 0 0 0 0 0 0 0 0 0 0 0 0 0 0 0 0 0 0 0 0 0 0 0 0
0 0 0 0 0 0 0 0 0 0 0 0 0 0 0 0 0 0 0 0 0 0 0 0 0 0 0 0 0 0 0 0 0 0 0 0 0 0 0 0 0 0 0
0 0 0 0 0 0 0 0 0 0 0 0 0 0 0 0 0 0 0 0 0 0 0 0 0 0 0 0 0 0 0 0 0 0 0 0 0 0 0 0 0 0 0
0 0 0 0 0 0 0 0 0 0 0 0 0 0 0 0 0 0 0 0 0 0 0 0 0 0 0 0 0 0 0 0 0 0 0 0 0 0 0 0 0 0 0
0 0 0 0 0 0 0 0 0 0 0 0 0 0 0 0 0 0 0 0 0 0 0 0 0 0 0 0 0 0 0 0 0 0 0 0 0 0 0 0 0 0 0
0 0 0 0 0 0 0 0 0 0 0 0 0 0 0 0 0 0 0 0 0 0 0 0 0 0 0 0 0 0 0 0 0 0 0 0 0 0 0 0 0 0 0
0 0 0 0 0 0 0 0 0 0 0 0 0 0 0 0 0 0 0 0 0 0 0 0 0 0 0 0 0 0 0 0 0 0 0 0 0 0 0 0 0 0 0
-0 -0 -0 -0 0 0 0 0 0 0 0 0 0 0 0 0 0 0 0 0 0 0 0 0 0 0 0 0 0 0 0 0 0 0 0 0 0 0 0 0 0 0 0
-0 -0 -0 -0 -0 -0 -0 -0 -0 0 0 0 0 0 0 0 0 0 0 0 0 0 0 0 0 0 0 0 0 0 0 0 0 0 0 0 0 0 0 0 0 0 0
-0 -0 -0 -0 -0 -0 -0 -0 -0 0 0 0 0 0 0 0 0 0 0 0 0 0 0 0 0 0 0 0 0 0 0 0 0 0 0 0 0 0 0 0 0 0 0
-0 -0 -0 -0 -0 -0 -0 -0 -0 -0 -0 0 0 0 0 0 0 0 0 0 0 0 0 0 0 0 0 0 0 0 0 0 0 0 0 0 0 0 0 0 0 0 0
-0 -0 -0 -0 -0 -0 0 0 0 0 0 0 0 0 0 0 0 0 0 0 0 0 0 0 0 0 0 0 0 0 0 0 0 0 0 0 0 0 0 0 0 0 0
-0 -0 -0 0 0 0 0 0 0 0 0 0 0 0 0 0 0 0 0 0 0 0 0 0 0 0 0 0 0 0 0 0 0 0 0 0 0 0 0 0 0 0 0
0 0 0 0 0 0 0 0 0 0 0 0 0 0 0 0 0 0 0 0 0 0 0 0 0 0 0 0 0 0 0 0 0 0 0 0 0 0 0 0 0 0 0
0 0 0 0 0 0 0 0 0 0 0 0 0 0 0 0 0 0 0 0 0 0 0 0 0 0 0 0 0 0 0 0 0 0 0 0 0 0 0 0 0 0 0
0 0 0 0 0 0 0 0 0 0 0 0 0 0 0 0 0 0 0 0 0 0 0 0 0 0 0 0 0 0 0 0 0 0 0 0 0 0 0 0 0 0 0
0 0 0 0 0 0 0 0 0 0 0 0 0 0 0 0 0 0 0 0 0 0 0 0 0 0 0 0 0 0 0 0 0 0 0 0 0 0 0 0 0 0 0
0 0 0 0 0 0 0 0 0 0 0 0 0 0 0 0 0 0 0 0 0 0 0 0 0 0 0 0 0 0 0 0 0 0 0 0 0 0 0 0 0 0 0
0 0 0 0 0 0 0 0 0 0 0 0 0 0 0 0 0 0 0 0 0 0 0 0 0 0 0 0 0 0 0 0 0 0 0 0 0 0 0 0 0 0 0
Wind_Speed_500mb
36 56 69 54 58 67 61 68 59 48 49 62 58 47 36 59 46 40 39 42 85 97 98 88 77 71 73 66 58 52 48 43 40 37 32 30 32 33 35 35 36 34 33
39 59 78 57 50 59 54 57 60 47 51 52 51 55 44 38 32 43 44 48 42 71 83 83 86 79 73 64 60 55 50 45 44 41 42 41 40 37 35 36 35 35 34
47 53 68 57 55 56 52 42 39 35 37 57 58 53 52 60 51 50 39 40 48 48 42 54 69 78 74 77 62 62 53 51 49 49 46 47 44 43 42 41 40 39 37
66 65 71 72 60 65 57 48 45 36 33 36 43 41 46 57 59 36 29 29 40 47 59 54 61 67 75 70 70 67 63 59 54 52 53 49 47 46 44 44 45 42 38
74 75 73 74 68 61 58 48 42 42 39 30 30 34 32 50 52 44 43 37 30 38 43 49 52 54 49 58 69 70 67 64 60 56 57 58 54 51 49 46 44 42 42
68 65 62 59 61 59 51 48 41 35 34 31 28 27 33 30 24 43 46 41 36 33 37 36 56 43 36 39 53 53 54 63 66 62 56 59 56 53 47 45 44 46 49
74 63 55 47 43 42 37 36 34 29 26 29 32 31 31 33 34 37 37 37 50 46 47 41 33 34 42 45 48 45 45 49 53 55 58 56 53 51 47 46 48 47 48
70 72 68 57 49 37 26 27 25 21 17 16 14 17 23 29 32 33 35 40 41 47 52 52 44 49 44 47 46 43 40 42 48 52 56 55 51 47 46 45 44 47 50
76 71 63 56 51 44 38 28 18 9 11 15 16 16 15 13 21 24 23 24 31 30 35 52 48 51 42 49 50 47 45 49 51 50 53 54 57 61 61 60 61 58 52
69 64 57 52 48 44 40 36 31 23 15 12 9 9 9 11 14 14 18 23 24 27 29 28 40 46 45 45 44 45 49 51 52 55 55 57 59 57 55 58 59 59 57
56 55 55 53 51 45 36 31 28 26 22 19 12 7 6 12 17 22 21 20 19 21 25 30 33 36 41 44 46 50 50 44 48 49 49 50 51 51 51 48 45 46 47
47 49 51 49 46 43 38 35 29 23 20 21 18 12 7 6 12 16 24 29 30 29 29 30 30 31 35 40 43 42 44 42 45 46 48 52 51 48 43 39 40 40 41
39 41 41 40 42 40 38 36 31 27 23 20 15 13 11 7 6 5 13 18 24 29 32 34 36 37 38 40 43 42 45 46 46 47 49 50 49 43 39 42 41 41 38
41 40 38 36 34 34 34 34 31 28 25 20 16 13 10 7 3 7 9 11 12 14 20 27 33 37 41 41 42 42 46 44 45 47 49 48 47 45 47 46 44 40 35
39 38 37 34 32 30 28 26 27 28 28 25 21 15 10 5 1 1 5 8 9 13 17 22 26 31 35 40 44 46 44 42 42 42 42 45 50 50 48 45 42 38 35
30 31 32 32 31 28 24 21 20 19 18 19 19 19 16 10 7 6 8 8 9 8 8 13 19 25 30 38 43 45 42 39 39 37 39 43 51 52 50 46 40 37 32
27 27 27 25 23 21 20 19 13 13 15 16 17 18 18 15 11 9 8 13 15 12 9 10 13 20 25 28 33 39 41 37 34 36 38 42 49 51 50 49 46 37 33
31 29 29 28 24 20 18 16 15 13 10 10 14 14 15 15 13 9 8 12 19 19 16 12 13 16 20 25 30 34 35 37 38 38 41 45 49 51 52 48 44 40 34
30 27 25 25 26 25 22 20 18 17 15 14 12 13 12 13 11 9 9 9 16 24 18 15 16 17 18 20 23 28 31 33 34 37 39 43 46 49 49 46 42 35 30
31 28 26 24 22 23 24 23 23 21 18 15 15 13 12 11 10 9 6 5 9 21 21 16 15 19 23 25 26 29 33 34 34 36 39 42 44 44 46 45 40 35 37
27 27 27 27 25 24 22 20 20 20 22 20 17 16 17 12 12 9 6 2 7 12 20 21 16 17 22 27 30 33 36 38 38 38 41 43 44 48 46 42 40 38 34
26 27 27 26 26 26 25 23 20 19 22 22 20 19 19 17 13 14 13 11 9 9 13 18 17 14 16 22 29 36 40 44 43 44 45 48 48 49 47 46 44 37 31
25 25 25 25 25 26 26 25 23 21 21 23 22 21 22 20 19 17 18 14 13 13 15 17 17 21 23 22 26 31 39 44 45 48 53 50 51 48 48 45 39 32 26
26 26 25 25 25 25 25 24 23 22 22 24 24 21 22 23 22 21 22 22 15 11 10 13 16 20 25 29 32 34 36 41 43 45 50 57 53 49 44 38 32 25 20
29 29 27 26 24 23 23 23 22 22 22 24 27 27 24 24 25 24 24 26 28 20 17 15 13 18 24 30 35 39 44 49 55 56 53 50 48 44 39 33 27 24 21
34 33 31 30 29 28 26 23 22 22 22 23 26 29 32 27 26 29 27 27 30 33 24 22 22 22 26 33 41 46 50 51 52 50 50 48 42 38 34 28 26 23 20
Wind_Direction_500mb
208 196 184 192 194 204 205 203 199 189 195 205 199 205 230 219 195 197 215 226 219 216 215 219 222 223 228 228 225 223 219 218 217 210 209 212 217 221 225 230 237 243 249
180 183 180 195 184 194 200 206 202 186 185 174 182 176 182 197 205 211 218 212 215 219 220 221 225 221 223 226 230 230 226 225 222 221 224 223 223 224 226 230 234 241 246
142 169 166 178 176 177 178 163 157 149 158 184 172 178 181 185 192 201 200 207 213 216 223 238 228 225 219 227 220 227 226 228 230 229 226 226 225 225 228 232 236 240 245
116 136 142 157 162 157 155 149 150 161 162 165 178 181 198 196 196 184 201 216 214 224 225 231 234 230 227 225 225 225 225 226 228 229 227 230 229 229 230 235 239 243 247
102 112 113 120 138 137 149 153 160 166 167 171 172 187 193 202 197 197 191 192 201 212 217 222 237 238 237 231 230 227 222 223 225 227 229 229 230 230 235 241 243 244 246
91 96 104 109 114 124 127 139 156 164 168 167 172 184 195 185 207 214 198 207 210 212 210 206 222 222 224 245 237 232 225 222 223 226 231 233 234 236 238 240 241 241 242
83 87 93 101 111 115 126 132 143 144 146 158 181 194 192 202 215 226 225 226 219 210 208 204 210 222 207 231 233 229 225 222 225 232 235 238 237 238 241 240 241 244 246
75 80 83 88 94 101 114 116 122 138 144 137 164 161 193 216 212 217 222 231 222 225 222 224 218 222 213 213 219 219 221 226 231 232 234 237 240 239 241 245 249 242 238
66 70 76 80 82 85 89 95 99 134 133 142 140 167 177 171 201 210 214 211 217 219 229 222 222 223 219 219 211 222 229 231 233 237 235 234 234 238 237 235 230 231 232
63 66 70 75 81 83 84 90 94 104 128 178 199 207 202 201 210 216 208 210 206 211 216 218 216 210 210 217 222 224 229 233 235 235 235 234 236 236 233 236 240 242 245
64 67 69 69 71 71 75 79 81 86 92 100 112 144 218 245 248 242 245 239 230 222 224 225 220 218 219 216 220 225 226 228 233 236 238 240 240 236 237 237 238 242 239
59 63 65 66 68 68 67 68 65 65 73 78 77 85 105 161 219 236 242 240 239 237 234 231 226 224 219 219 220 219 224 223 228 231 234 232 230 229 230 228 226 227 224
59 60 60 62 64 64 61 61 60 59 57 61 69 76 75 100 134 129 213 218 227 230 234 236 234 231 229 228 229 228 231 229 229 231 231 228 227 226 218 214 212 213 215
53 56 58 57 57 56 54 55 53 52 52 53 51 53 65 79 133 190 170 171 192 218 225 227 228 228 229 231 230 229 230 229 229 227 224 222 218 210 208 210 205 202 201
39 43 46 49 51 48 50 47 43 41 39 34 33 33 35 17 38 226 222 213 231 240 239 235 229 227 223 220 216 220 221 219 215 216 216 213 207 204 200 200 203 201 202
29 32 32 32 34 38 42 34 34 36 36 29 17 12 9 1 326 280 246 231 222 220 223 229 226 225 219 215 212 209 208 208 207 207 208 208 204 199 196 195 201 200 203
17 18 19 22 23 22 20 19 22 6 10 10 10 4 351 343 336 319 269 228 232 221 214 213 207 209 208 208 204 201 200 198 197 197 198 195 196 196 198 194 193 199 195
359 359 358 357 360 2 1 0 0 355 339 329 337 343 348 341 325 314 283 243 218 222 215 210 202 200 203 203 198 197 194 192 193 195 194 194 195 194 190 193 192 189 185
346 345 344 342 337 335 336 334 333 335 330 316 310 315 323 333 320 317 306 275 225 226 216 222 208 201 203 205 203 200 199 196 194 191 191 190 189 189 186 183 178 176 174
337 336 335 332 329 327 326 323 319 315 313 303 291 287 293 291 297 293 311 246 216 217 210 209 211 204 199 199 200 197 193 192 191 188 185 183 183 182 177 172 172 169 169
326 326 324 323 321 319 316 314 307 298 297 298 284 272 268 279 268 261 257 207 217 206 210 208 216 211 207 201 197 196 193 189 186 184 180 177 177 173 173 168 166 166 167
319 319 318 318 316 314 311 306 299 292 289 290 285 269 260 256 254 239 236 229 221 201 194 195 201 212 213 203 197 196 195 190 185 182 180 175 171 171 168 169 167 165 166
309 309 311 312 311 310 307 304 297 288 278 279 282 273 260 249 242 233 223 226 225 229 223 222 225 218 202 192 185 186 190 193 189 181 175 174 169 167 167 164 163 163 167
299 300 303 304 306 307 305 301 295 285 273 265 267 271 260 247 240 230 219 210 212 211 206 196 200 203 195 187 181 178 178 179 180 179 178 163 162 163 159 159 160 166 179
296 295 295 294 298 301 301 301 296 285 274 264 256 254 257 248 236 230 221 212 204 198 193 180 171 184 188 182 178 175 173 169 159 151 155 162 160 162 169 170 172 180 179
288 286 285 285 286 287 290 294 294 287 278 267 257 252 247 245 237 225 220 214 206 201 194 183 170 161 165 167 158 151 149 149 155 161 162 166 175 176 171 175 181 179 177
Wind_Speed_850mb
36 56 69 54 58 67 61 68 59 48 49 62 58 47 36 59 46 40 39 42 85 97 98 88 77 71 73 66 58 52 48 43 40 37 32 30 32 33 35 35 36 34 33
39 59 78 57 50 59 54 57 60 47 51 52 51 55 44 38 32 43 44 48 42 71 83 83 86 79 73 64 60 55 50 45 44 41 42 41 40 37 35 36 35 35 34
47 53 68 57 55 56 52 42 39 35 37 57 58 53 52 60 51 50 39 40 48 48 42 54 69 78 74 77 62 62 53 51 49 49 46 47 44 43 42 41 40 39 37
66 65 71 72 60 65 57 48 45 36 33 36 43 41 46 57 59 36 29 29 40 47 59 54 61 67 75 70 70 67 63 59 54 52 53 49 47 46 44 44 45 42 38
74 75 73 74 68 61 58 48 42 42 39 30 30 34 32 50 52 44 43 37 30 38 43 49 52 54 49 58 69 70 67 64 60 56 57 58 54 51 49 46 44 42 42
68 65 62 59 61 59 51 48 41 35 34 31 28 27 33 30 24 43 46 41 36 33 37 36 56 43 36 39 53 53 54 63 66 62 56 59 56 53 47 45 44 46 49
74 63 55 47 43 42 37 36 34 29 26 29 32 31 31 33 34 37 37 37 50 46 47 41 33 34 42 45 48 45 45 49 53 55 58 56 53 51 47 46 48 47 48
70 72 68 57 49 37 26 27 25 21 17 16 14 17 23 29 32 33 35 40 41 47 52 52 44 49 44 47 46 43 40 42 48 52 56 55 51 47 46 45 44 47 50
76 71 63 56 51 44 38 28 18 9 11 15 16 16 15 13 21 24 23 24 31 30 35 52 48 51 42 49 50 47 45 49 51 50 53 54 57 61 61 60 61 58 52
69 64 57 52 48 44 40 36 31 23 15 12 9 9 9 11 14 14 18 23 24 27 29 28 40 46 45 45 44 45 49 51 52 55 55 57 59 57 55 58 59 59 57
56 55 55 53 51 45 36 31 28 26 22 19 12 7 6 12 17 22 21 20 19 21 25 30 33 36 41 44 46 50 50 44 48 49 49 50 51 51 51 48 45 46 47
47 49 51 49 46 43 38 35 29 23 20 21 18 12 7 6 12 16 24 29 30 29 29 30 30 31 35 40 43 42 44 42 45 46 48 52 51 48 43 39 40 40 41
39 41 41 40 42 40 38 36 31 27 23 20 15 13 11 7 6 5 13 18 24 29 32 34 36 37 38 40 43 42 45 46 46 47 49 50 49 43 39 42 41 41 38
41 40 38 36 34 34 34 34 31 28 25 20 16 13 10 7 3 7 9 11 12 14 20 27 33 37 41 41 42 42 46 44 45 47 49 48 47 45 47 46 44 40 35
39 38 37 34 32 30 28 26 27 28 28 25 21 15 10 5 1 1 5 8 9 13 17 22 26 31 35 40 44 46 44 42 42 42 42 45 50 50 48 45 42 38 35
30 31 32 32 31 28 24 21 20 19 18 19 19 19 16 10 7 6 8 8 9 8 8 13 19 25 30 38 43 45 42 39 39 37 39 43 51 52 50 46 40 37 32
27 27 27 25 23 21 20 19 13 13 15 16 17 18 18 15 11 9 8 13 15 12 9 10 13 20 25 28 33 39 41 37 34 36 38 42 49 51 50 49 46 37 33
31 29 29 28 24 20 18 16 15 13 10 10 14 14 15 15 13 9 8 12 19 19 16 12 13 16 20 25 30 34 35 37 38 38 41 45 49 51 52 48 44 40 34
30 27 25 25 26 25 22 20 18 17 15 14 12 13 12 13 11 9 9 9 16 24 18 15 16 17 18 20 23 28 31 33 34 37 39 43 46 49 49 46 42 35 30
31 28 26 24 22 23 24 23 23 21 18 15 15 13 12 11 10 9 6 5 9 21 21 16 15 19 23 25 26 29 33 34 34 36 39 42 44 44 46 45 40 35 37
27 27 27 27 25 24 22 20 20 20 22 20 17 16 17 12 12 9 6 2 7 12 20 21 16 17 22 27 30 33 36 38 38 38 41 43 44 48 46 42 40 38 34
26 27 27 26 26 26 25 23 20 19 22 22 20 19 19 17 13 14 13 11 9 9 13 18 17 14 16 22 29 36 40 44 43 44 45 48 48 49 47 46 44 37 31
25 25 25 25 25 26 26 25 23 21 21 23 22 21 22 20 19 17 18 14 13 13 15 17 17 21 23 22 26 31 39 44 45 48 53 50 51 48 48 45 39 32 26
26 26 25 25 25 25 25 24 23 22 22 24 24 21 22 23 22 21 22 22 15 11 10 13 16 20 25 29 32 34 36 41 43 45 50 57 53 49 44 38 32 25 20
29 29 27 26 24 23 23 23 22 22 22 24 27 27 24 24 25 24 24 26 28 20 17 15 13 18 24 30 35 39 44 49 55 56 53 50 48 44 39 33 27 24 21
34 33 31 30 29 28 26 23 22 22 22 23 26 29 32 27 26 29 27 27 30 33 24 22 22 22 26 33 41 46 50 51 52 50 50 48 42 38 34 28 26 23 20
Wind_Direction_850mb
208 196 184 192 194 204 205 203 199 189 195 205 199 205 230 219 195 197 215 226 219 216 215 219 222 223 228 228 225 223 219 218 217 210 209 212 217 221 225 230 237 243 249
180 183 180 195 184 194 200 206 202 186 185 174 182 176 182 197 205 211 218 212 215 219 220 221 225 221 223 226 230 230 226 225 222 221 224 223 223 224 226 230 234 241 246
142 169 166 178 176 177 178 163 157 149 158 184 172 178 181 185 192 201 200 207 213 216 223 238 228 225 219 227 220 227 226 228 230 229 226 226 225 225 228 232 236 240 245
116 136 142 157 162 157 155 149 150 161 162 165 178 181 198 196 196 184 201 216 214 224 225 231 234 230 227 225 225 225 225 226 228 229 227 230 229 229 230 235 239 243 247
102 112 113 120 138 137 149 153 160 166 167 171 172 187 193 202 197 197 191 192 201 212 217 222 237 238 237 231 230 227 222 223 225 227 229 229 230 230 235 241 243 244 246
91 96 104 109 114 124 127 139 156 164 168 167 172 184 195 185 207 214 198 207 210 212 210 206 222 222 224 245 237 232 225 222 223 226 231 233 234 236 238 240 241 241 242
83 87 93 101 111 115 126 132 143 144 146 158 181 194 192 202 215 226 225 226 219 210 208 204 210 222 207 231 233 229 225 222 225 232 235 238 237 238 241 240 241 244 246
75 80 83 88 94 101 114 116 122 138 144 137 164 161 193 216 212 217 222 231 222 225 222 224 218 222 213 213 219 219 221 226 231 232 234 237 240 239 241 245 249 242 238
66 70 76 80 82 85 89 95 99 134 133 142 140 167 177 171 201 210 214 211 217 219 229 222 222 223 219 219 211 222 229 231 233 237 235 234 234 238 237 235 230 231 232
63 66 70 75 81 83 84 90 94 104 128 178 199 207 202 201 210 216 208 210 206 211 216 218 216 210 210 217 222 224 229 233 235 235 235 234 236 236 233 236 240 242 245
64 67 69 69 71 71 75 79 81 86 92 100 112 144 218 245 248 242 245 239 230 222 224 225 220 218 219 216 220 225 226 228 233 236 238 240 240 236 237 237 238 242 239
59 63 65 66 68 68 67 68 65 65 73 78 77 85 105 161 219 236 242 240 239 237 234 231 226 224 219 219 220 219 224 223 228 231 234 232 230 229 230 228 226 227 224
59 60 60 62 64 64 61 61 60 59 57 61 69 76 75 100 134 129 213 218 227 230 234 236 234 231 229 228 229 228 231 229 229 231 231 228 227 226 218 214 212 213 215
53 56 58 57 57 56 54 55 53 52 52 53 51 53 65 79 133 190 170 171 192 218 225 227 228 228 229 231 230 229 230 229 229 227 224 222 218 210 208 210 205 202 201
39 43 46 49 51 48 50 47 43 41 39 34 33 33 35 17 38 226 222 213 231 240 239 235 229 227 223 220 216 220 221 219 215 216 216 213 207 204 200 200 203 201 202
29 32 32 32 34 38 42 34 34 36 36 29 17 12 9 1 326 280 246 231 222 220 223 229 226 225 219 215 212 209 208 208 207 207 208 208 204 199 196 195 201 200 203
17 18 19 22 23 22 20 19 22 6 10 10 10 4 351 343 336 319 269 228 232 221 214 213 207 209 208 208 204 201 200 198 197 197 198 195 196 196 198 194 193 199 195
359 359 358 357 360 2 1 0 0 355 339 329 337 343 348 341 325 314 283 243 218 222 215 210 202 200 203 203 198 197 194 192 193 195 194 194 195 194 190 193 192 189 185
346 345 344 342 337 335 336 334 333 335 330 316 310 315 323 333 320 317 306 275 225 226 216 222 208 201 203 205 203 200 199 196 194 191 191 190 189 189 186 183 178 176 174
337 336 335 332 329 327 326 323 319 315 313 303 291 287 293 291 297 293 311 246 216 217 210 209 211 204 199 199 200 197 193 192 191 188 185 183 183 182 177 172 172 169 169
326 326 324 323 321 319 316 314 307 298 297 298 284 272 268 279 268 261 257 207 217 206 210 208 216 211 207 201 197 196 193 189 186 184 180 177 177 173 173 168 166 166 167
319 319 318 318 316 314 311 306 299 292 289 290 285 269 260 256 254 239 236 229 221 201 194 195 201 212 213 203 197 196 195 190 185 182 180 175 171 171 168 169 167 165 166
309 309 311 312 311 310 307 304 297 288 278 279 282 273 260 249 242 233 223 226 225 229 223 222 225 218 202 192 185 186 190 193 189 181 175 174 169 167 167 164 163 163 167
299 300 303 304 306 307 305 301 295 285 273 265 267 271 260 247 240 230 219 210 212 211 206 196 200 203 195 187 181 178 178 179 180 179 178 163 162 163 159 159 160 166 179
296 295 295 294 298 301 301 301 296 285 274 264 256 254 257 248 236 230 221 212 204 198 193 180 171 184 188 182 178 175 173 169 159 151 155 162 160 162 169 170 172 180 179
288 286 285 285 286 287 290 294 294 287 278 267 257 252 247 245 237 225 220 214 206 201 194 183 170 161 165 167 158 151 149 149 155 161 162 166 175 176 171 175 181 179 177